Other Surface Observations
Issued by NWS Charleston, SC

Home | Current Version | Previous Version | Text Only | Print | Product List | Glossary On
Versions: 1 2 3 4 5 6 7 8 9 10 11 12 13 14 15 16 17 18 19 20 21 22 23 24 25 26 27 28 29 30 31 32 33 34 35 36 37 38 39 40 41 42 43 44 45 46 47 48 49 50
000
SXUS52 KCHS 230126
OSOCHS

MARINE OBSERVATIONS
NATIONAL WEATHER SERVICE CHARLESTON SC
800 PM EST WED FEB 22 2017

...DOWNTOWN CHARLESTON AND HARBOR...

CITY           SKY/WX    TMP DP  RH WIND       PRES   REMARKS
WATERFRONT PRK   N/A     64  61  90 E7        29.89R

...LAKE MOULTRIE...

CITY           SKY/WX    TMP DP  RH WIND       PRES   REMARKS
PINOPOLIS        N/A     64  59  82 VRB3      29.81R

...LAKE AND SUPPLEMENTAL COASTAL OBSERVATIONS...

STATION/POSITION TIME  TEMP    WIND        PRES    WAVE   SWELL
                       AIR SEA DIR/SP/G            HT/PER HT/PER/DIR
                 (UTC) (F)     (DEG/KT/KT) (MB)    (FT/S) (FT/S/D)
FORT PULASKI     0100   64 61   60/ 12/ 14 1011.1
SAPELO ISLAND    0100   65      80/  8     1009.0
WINYAH BAY       0030   63      60/  6     1013.0R
LAKE MURRAY      0020   66        CALM     1011.9
ACE BASIN NERRS  0045   66      70/  4     1011.0S


...C-MAN AND BUOY OBSERVATIONS...

STATION/POSITION TIME  TEMP    WIND        PRES    WAVE   SWELL
                       AIR SEA DIR/SP/G            HT/PER HT/PER/DIR
                 (UTC) (F)     (DEG/KT/KT) (MB)    (FT/S) (FT/S/D)
BUOY 41004       0050   70 70  110/ 17/ 21 1011.2R   6/ 6
BUOY 41008       0050   66 63  100/ 17/ 23 1009.0R   6/ 8   2/120/12
FOLLY BEACH CMAN 0100   62      70/  9/ 10 1012.5F
CAPERS NS BUOY   0108   61 59   80/  6/  8 1012.3R
FRIPP NS BUOY    0108   63 60   70/ 12/ 16 1011.1R
5E ST. MARYS GA  0100      63                N/A     5/ 8


STATION/POSITION TIME  TEMP    WIND        PRES    WAVE   SWELL
                       AIR SEA DIR/SP/G            HT/PER HT/PER/DIR
                 (UTC) (F)     (DEG/KT/KT) (MB)    (FT/S) (FT/S/D)
FRYING PAN BUOY  0100          120/ 12/ 16 1013.6
BUOY 41025       0050   68 74  160/ 10/ 14 1015.1S   3/10   3/ 30/10
CAPE LOOKOUT NC  0100   65     130/  7/  8 1014.5R
BUOY 41002       0050   66 70  110/ 16/ 19 1014.6R   6/10   5/ 50/10
BUOY 41010       NOT AVBL
ST AUGUSTINE FL  0100   64 67   70/ 15/ 16 1008.6F

$$




USA.gov is the U.S. government's official web portal to all federal, state and local government web resources and services.